sat.trackr.live / text

‹ back to catalog

STARLINK-35683

NORAD 66405 · 2025-257AB

PAYLOAD ACTIVE UNKNOWN

§ Identity

Operator
Country
US
Launch date
2025-11-09
Launch site
AFETR
Launch vehicle
Mass (kg)
RCS (m²)

Purposes: comms

External: N2YO · Heavens-Above · Gunter

§ Orbital elements

Epoch: 2026-09-20T14:20:49.074144Z

Period
93.85 min
Inclination
53.1605°
Eccentricity
0.0001187
Mean motion
15.34398141 rev/d
Perigee alt
461.9 km
Apogee alt
463.5 km
Semi-major
6,840.8 km
B*
6.2998e-4
RAAN
27.5173°
Arg perigee
94.6566°
Mean anomaly
265.4572°
Rev number
4,956

§ Raw data

STARLINK-356831 66405U 25257AB  26263.59779021  .00020967  00000+0  62998-3 0  99912 66405  53.1605  27.5173 0001187  94.6566 265.4572 15.34398141 49565

JSON: /api/v1/satellites/66405 · /tle

For live sub-satellite position, see the globe view (requires WebGL).

§ Visibility from observer

Set your observer location to see the next 7 days of passes ≥ 10°. The values pass through the URL so the page stays shareable.

No JS? Fill the form by hand. The geolocation button needs JavaScript.